GFSFLT2_sfc_dewp_033.txt.gz
Dewpoint
66 66 65 65 66 66 66 66 66 66 66 66 66 66 65 65 65 64 64 64 65 65 63 63 63 63 61 61 61 60 54 54
62 62 63 62 63 65 66 66 66 66 66 65 65 65 65 65 64 64 64 64 64 65 63 62 62 61 58 57 57 57 55 54
59 59 60 62 63 64 65 66 65 65 64 64 61 57 58 57 61 62 63 63 62 62 60 59 58 57 56 55 55 50 52 54
58 59 60 61 58 60 62 62 61 61 59 60 58 60 58 57 60 63 61 59 58 57 55 53 50 44 43 47 42 47 47 50
58 57 58 61 61 58 59 59 59 60 60 59 60 60 59 58 56 52 52 52 45 46 44 42 45 43 43 43 42 41 43 48
59 59 57 60 61 58 58 56 58 59 58 59 60 59 59 57 52 51 50 48 48 47 45 46 45 44 44 43 42 39 38 38
57 59 58 60 60 58 57 57 56 57 57 59 59 58 58 53 52 50 48 47 47 46 45 43 43 41 41 40 39 40 41 39
56 57 60 61 59 58 57 59 59 59 59 60 59 57 55 52 50 48 47 47 46 45 44 41 40 40 40 40 38 37 41 43
57 60 63 61 59 58 60 61 61 59 60 59 58 55 54 52 49 48 47 48 47 46 43 42 40 38 39 38 36 37 38 43
57 59 62 62 59 59 61 61 61 61 61 60 56 53 53 52 49 48 47 47 45 43 42 40 39 38 39 36 36 34 37 41
57 60 62 62 60 60 61 60 60 60 60 59 56 52 50 50 48 48 47 44 44 41 41 40 37 38 36 36 36 33 33 31
58 60 62 62 59 60 59 58 58 59 58 56 54 49 49 49 47 47 45 42 41 40 41 41 41 40 32 35 35 34 32 32
60 61 61 60 58 57 57 57 57 55 53 53 52 49 48 48 45 45 44 42 42 43 40 40 39 40 37 36 34 35 34 30
60 61 60 59 58 57 57 56 56 52 50 52 49 49 47 47 46 44 43 41 42 42 41 39 39 40 35 34 31 32 32 30
60 61 60 59 59 57 54 54 53 49 47 48 47 47 46 45 45 43 41 38 38 41 41 40 36 38 38 33 28 26 32 33
61 60 59 59 58 57 54 54 52 51 49 48 46 47 45 41 39 40 40 39 40 40 40 41 40 36 38 35 38 36 28 26
61 60 59 59 58 58 57 56 54 51 48 46 43 42 40 38 39 41 40 39 42 43 43 41 40 37 36 37 37 35 34 30
61 60 59 59 58 58 57 55 51 49 45 43 40 39 38 39 38 39 40 41 42 42 42 42 39 38 37 37 34 31 29 29
60 59 59 58 58 58 56 53 50 48 43 43 41 38 36 38 38 39 40 42 42 41 41 41 40 38 38 36 36 34 33 32
59 59 58 57 58 57 56 53 52 48 45 45 42 39 35 38 37 39 40 41 41 41 40 40 41 40 39 38 36 36 36 34

GFSFLT2_sfc_dewp_036.txt.gz
Dewpoint
66 66 65 65 66 66 66 66 66 67 67 67 67 66 65 65 65 65 65 65 64 64 64 64 62 61 60 61 61 60 49 49
63 62 62 62 63 66 66 66 66 67 67 66 65 65 65 65 64 64 65 65 64 63 64 63 60 59 58 57 58 58 48 48
61 60 60 60 60 65 65 66 66 65 64 64 60 52 53 55 62 64 64 64 63 61 60 60 59 57 56 56 55 45 45 46
60 58 58 59 58 61 63 61 59 59 57 55 53 57 57 54 61 62 61 61 60 57 56 55 53 46 44 49 43 45 43 44
58 59 60 59 58 61 60 59 60 60 61 59 59 57 59 57 57 53 53 55 47 48 47 46 48 45 45 45 43 42 40 39
56 57 57 58 60 57 58 56 57 58 58 59 59 56 58 57 54 53 52 50 51 49 48 49 47 46 46 45 44 41 38 35
55 57 57 58 59 54 56 56 55 55 55 54 53 54 58 56 54 52 51 50 50 49 47 46 46 45 44 42 39 39 38 33
54 54 55 54 53 56 55 55 55 55 56 57 59 56 58 55 54 51 50 49 49 48 46 44 43 43 42 39 36 34 38 40
54 55 55 55 56 55 53 54 54 54 57 62 60 59 58 56 53 51 50 50 50 48 46 45 43 39 37 36 35 37 36 38
54 55 58 60 60 57 53 56 56 56 59 60 60 57 57 56 53 51 50 49 47 45 44 42 40 37 38 35 36 36 37 38
53 56 58 61 61 57 57 59 60 59 62 60 59 56 55 54 52 51 51 47 47 44 43 41 37 36 33 36 37 36 36 31
55 57 59 62 60 58 55 59 61 61 61 59 58 54 54 54 52 52 48 45 45 43 42 39 36 36 26 32 36 35 34 35
56 57 60 62 58 54 54 57 59 60 60 59 58 55 53 53 50 49 47 45 45 45 40 37 37 39 36 36 36 37 36 33
57 57 59 60 58 54 56 58 59 58 57 57 56 54 52 51 50 48 47 45 46 44 39 38 39 38 37 33 31 32 34 34
55 57 59 61 59 56 56 58 59 56 54 54 53 53 50 48 50 48 48 45 42 41 40 41 39 39 40 31 27 28 30 32
56 56 58 60 60 57 56 54 56 57 55 52 51 51 50 47 48 48 46 42 40 39 40 42 41 38 38 33 36 32 22 25
58 58 58 60 61 60 58 57 58 58 54 52 52 52 50 47 46 45 44 40 40 42 43 42 41 36 33 36 35 33 34 29
59 59 58 60 61 61 60 59 58 57 53 51 50 49 49 46 42 43 43 40 42 45 44 44 39 37 34 34 31 30 28 27
59 59 59 60 61 60 60 59 59 56 54 52 49 46 46 45 44 42 40 41 45 43 44 41 40 37 37 33 34 31 29 28
59 60 59 60 60 60 60 60 59 56 55 50 46 45 44 45 42 41 40 43 42 43 39 43 40 38 39 37 32 32 32 31

GFSFLT2_sfc_dewp_039.txt.gz
Dewpoint
67 66 66 67 66 66 66 66 67 67 67 67 67 66 66 66 66 65 65 65 65 65 64 63 61 61 60 60 59 60 49 48
66 66 66 66 66 66 66 66 67 67 67 66 65 65 65 65 65 66 65 65 65 64 63 61 59 59 58 58 58 59 47 46
62 62 62 63 64 65 66 67 66 65 64 63 60 53 54 57 64 65 65 64 64 63 62 61 60 58 57 55 57 44 43 43
60 59 59 58 60 64 63 62 59 59 57 58 53 58 57 57 62 63 63 62 61 61 60 60 58 46 45 53 42 43 40 41
58 58 58 57 57 61 61 59 59 59 58 60 61 60 60 60 59 56 57 57 49 49 49 49 50 47 46 46 44 41 38 36
57 58 57 58 58 58 60 60 60 60 58 60 62 60 62 59 56 55 55 52 52 51 50 52 49 47 46 45 44 39 35 34
56 56 55 56 57 59 60 58 57 57 58 58 58 59 61 56 55 54 53 53 52 51 50 48 47 46 45 41 37 37 37 33
55 56 58 57 56 57 57 55 53 55 56 56 56 54 60 55 56 53 53 52 51 50 49 46 43 43 42 38 36 34 38 39
55 56 56 56 55 56 51 51 50 52 53 60 57 56 61 58 55 54 53 52 52 51 48 45 43 39 37 36 34 36 36 37
50 50 54 56 54 55 51 54 55 53 55 59 60 58 59 59 55 54 53 53 51 49 45 43 41 38 38 36 36 35 36 37
49 54 53 57 56 56 53 53 53 49 55 60 60 58 58 58 55 54 54 51 50 48 45 42 40 37 35 37 39 36 36 29
51 55 57 59 57 58 53 52 55 57 60 60 60 57 57 57 55 55 53 50 49 46 45 42 39 39 32 33 40 38 35 36
53 54 57 58 56 52 51 51 53 59 62 59 60 57 57 57 55 55 52 49 48 48 45 42 39 42 40 41 39 40 38 35
52 53 55 57 56 52 50 52 53 55 58 60 59 59 56 56 55 53 52 48 49 48 44 40 42 43 41 41 38 36 37 37
54 54 56 59 57 53 51 53 56 56 56 56 58 58 55 54 54 52 51 49 48 48 44 44 43 43 44 40 35 31 34 36
55 55 56 59 60 56 53 52 55 57 57 56 55 56 55 52 52 53 52 49 47 46 42 45 45 43 42 40 39 37 31 28
56 55 55 56 60 60 55 54 55 58 57 57 57 54 53 53 52 53 51 47 49 48 45 47 45 44 41 39 39 37 37 33
58 55 54 55 60 60 60 57 58 60 58 56 55 54 53 53 50 53 49 48 49 44 47 46 46 44 40 37 37 33 32 33
56 55 55 56 58 61 62 61 61 60 59 58 56 55 54 53 51 49 48 47 44 46 47 47 46 41 41 35 35 35 33 30
55 55 56 57 60 61 61 59 58 60 60 59 57 55 52 50 48 47 46 46 45 47 46 45 44 43 40 42 37 35 33 31

GFSFLT2_sfc_dewp_042.txt.gz
Dewpoint
66 67 67 67 66 66 66 67 67 67 68 68 67 67 66 66 66 67 66 66 65 65 64 63 62 61 58 58 60 61 55 51
64 65 65 65 65 66 66 66 67 67 66 66 65 65 65 65 65 65 65 65 65 64 63 62 60 58 57 55 57 58 48 51
64 64 63 65 65 66 66 67 66 65 64 64 61 58 57 60 64 65 65 64 64 63 62 60 58 57 56 57 57 47 44 53
61 63 63 63 63 64 65 64 62 61 60 59 58 60 60 61 63 63 63 63 63 62 61 60 58 49 49 55 46 45 47 54
59 60 60 60 60 62 62 61 59 60 60 61 60 60 60 60 60 59 58 58 52 54 55 53 53 50 50 48 46 43 42 49
57 58 58 59 60 60 61 61 61 59 60 61 60 60 59 58 58 58 57 55 52 53 55 53 50 48 48 46 43 40 39 47
55 55 55 56 57 57 58 60 59 60 59 60 60 60 61 59 58 57 55 57 56 55 53 51 48 48 45 41 38 39 39 42
55 55 55 55 54 54 56 58 57 59 59 59 60 60 60 59 59 58 57 56 55 54 52 49 48 47 43 38 37 38 39 40
54 55 55 54 54 56 57 55 54 51 54 59 60 58 61 60 57 57 57 56 55 53 50 48 46 41 39 38 39 37 39 38
54 56 55 55 55 54 55 55 51 49 53 60 59 58 61 60 59 57 57 55 54 53 50 48 45 42 40 39 38 37 36 36
53 53 53 52 53 53 52 53 57 54 56 58 61 60 60 60 58 58 57 55 55 52 49 47 44 41 40 40 40 39 37 33
51 51 51 52 52 54 53 55 55 55 55 61 60 59 60 60 60 58 56 55 53 51 47 44 44 43 36 37 42 41 38 38
49 50 52 54 55 55 55 54 55 57 60 60 62 60 59 59 59 58 56 54 52 51 48 43 41 44 43 44 44 42 40 39
53 51 54 56 57 54 55 54 54 56 60 62 61 61 58 58 59 58 56 53 53 50 48 46 45 46 44 43 42 40 40 40
52 54 55 57 57 55 53 54 53 54 57 61 60 61 59 58 58 56 56 55 52 51 49 46 44 46 44 42 39 36 37 40
52 53 53 55 57 57 53 50 51 56 58 58 59 60 59 57 56 56 55 54 51 51 49 47 47 45 46 44 44 39 35 32
54 54 54 56 58 59 58 53 57 60 59 59 58 59 58 58 55 54 55 54 53 50 47 48 48 44 45 44 42 41 40 36
56 56 55 56 59 59 59 57 57 59 59 58 58 57 56 55 54 55 55 54 51 49 48 49 46 45 42 41 40 37 36 37
55 55 55 56 59 60 60 59 59 58 58 59 58 56 56 56 56 55 54 51 50 47 49 49 47 43 42 42 39 39 38 36
54 54 54 55 58 59 60 60 59 60 59 59 57 56 57 57 55 51 49 48 48 48 49 48 46 44 44 41 39 40 39 35

GFSFLT2_sfc_dewp_045.txt.gz
Dewpoint
66 67 68 67 67 67 67 67 67 67 67 67 67 67 67 68 68 67 66 66 65 64 63 61 60 59 59 59 60 59 52 53
64 65 66 66 66 66 67 67 67 67 66 66 65 66 66 67 66 66 65 65 64 63 62 60 58 56 56 57 58 58 52 53
63 63 64 64 64 66 67 67 66 65 65 64 61 59 60 62 65 65 65 64 64 62 61 59 57 56 55 57 53 52 54 56
62 61 61 62 63 65 65 64 62 61 59 57 56 59 60 62 63 64 64 63 62 62 60 58 54 47 48 51 44 52 56 57
62 61 62 62 62 60 63 63 61 59 58 59 59 61 60 60 59 60 60 60 57 58 56 51 51 49 46 43 40 44 51 55
59 60 61 61 62 61 61 61 59 59 60 58 58 58 57 58 56 55 53 53 50 51 52 51 47 46 45 41 37 39 48 52
57 57 58 58 59 60 60 60 60 61 59 58 59 56 56 57 57 55 55 54 51 53 50 48 46 43 40 37 38 37 43 45
55 55 56 56 56 57 57 57 58 60 58 58 58 59 57 57 57 56 55 55 54 51 51 48 47 42 37 36 36 38 38 45
54 54 55 54 55 56 55 55 53 48 49 54 56 58 59 58 58 58 56 54 54 52 50 47 44 41 37 36 36 37 37 37
54 55 55 55 54 55 56 56 55 49 46 56 56 57 60 59 58 56 56 53 51 50 47 45 44 41 38 36 37 37 34 35
53 53 54 53 54 54 52 52 53 48 48 51 58 57 60 58 59 58 54 53 53 51 49 46 41 40 38 39 37 38 35 35
52 51 51 51 50 49 48 49 48 47 53 55 60 59 59 60 60 58 54 53 53 51 46 44 42 40 38 36 39 39 37 37
51 50 51 48 49 48 47 49 50 53 55 59 56 56 59 60 59 56 54 53 51 49 46 40 39 42 40 42 42 40 37 37
50 49 49 49 50 49 50 51 53 53 58 59 58 58 60 60 58 56 55 54 51 49 45 43 41 43 41 42 40 38 40 38
49 49 49 50 50 53 54 54 52 53 56 58 58 60 60 59 58 57 56 54 52 48 48 44 41 44 42 41 37 36 38 39
48 49 49 50 54 54 52 51 49 51 55 58 59 60 59 59 57 57 57 56 52 49 49 47 47 46 45 43 42 38 34 31
50 51 50 53 55 55 56 51 51 53 55 58 59 59 58 58 57 56 55 54 52 51 50 49 48 46 44 44 43 39 38 36
50 51 52 53 55 57 57 55 52 56 57 57 57 58 57 58 56 54 54 54 52 52 49 48 48 48 44 43 41 40 39 38
50 50 51 52 53 56 57 57 56 56 56 57 57 56 56 56 56 54 55 53 52 49 49 49 48 46 44 44 41 39 38 37
51 51 51 52 54 55 57 57 56 57 57 57 57 57 57 55 55 54 55 53 51 48 50 49 48 47 44 43 40 40 39 37

GFSFLT2_sfc_dewp_048.txt.gz
Dewpoint
67 66 67 65 64 65 67 68 68 68 68 68 68 68 68 67 67 66 65 64 63 62 62 61 61 60 61 61 59 58 53 53
64 65 66 64 62 62 66 67 67 67 67 67 67 67 67 67 66 65 65 64 63 61 61 61 60 59 61 60 59 58 52 54
63 64 63 63 63 62 63 66 66 66 65 65 64 64 65 63 64 65 64 63 62 61 60 59 56 58 58 59 57 53 54 55
62 61 61 61 61 61 64 64 62 61 59 58 60 61 62 63 64 64 63 62 61 60 59 57 53 46 47 55 54 56 57 57
61 61 60 59 59 60 63 63 60 58 56 59 60 61 61 60 60 60 60 61 57 56 52 50 49 46 42 45 50 54 56 57
61 60 61 59 58 57 62 61 58 58 57 59 58 57 56 57 57 57 55 54 53 51 51 49 46 44 40 39 45 50 54 55
60 60 61 61 59 61 61 60 59 60 58 58 57 55 55 56 54 53 52 52 50 52 50 47 44 40 37 38 39 46 48 50
58 59 60 59 58 59 59 59 61 60 58 57 56 55 55 55 54 53 53 53 51 51 49 46 44 38 36 36 39 41 43 44
55 56 56 57 57 57 57 56 53 57 58 58 57 56 56 56 56 55 54 55 53 51 50 48 45 39 35 36 37 38 41 43
56 56 55 56 56 56 56 55 53 48 50 56 57 57 59 58 57 57 56 55 53 51 49 44 43 39 37 35 37 36 35 40
55 55 55 55 55 55 53 52 51 48 47 50 56 56 59 59 58 58 55 53 52 50 48 46 43 40 37 37 37 37 35 38
54 55 54 54 53 52 51 52 51 50 48 50 52 56 57 59 59 58 55 52 52 50 48 46 42 40 37 37 37 38 36 38
52 53 52 51 50 49 49 49 50 49 49 53 55 57 59 59 58 58 55 53 52 51 46 41 40 41 40 41 42 41 37 36
51 51 50 49 48 47 48 48 49 48 48 52 56 56 57 59 59 58 55 53 51 50 45 42 39 42 39 42 39 40 39 38
51 50 48 49 48 47 47 48 48 47 47 52 56 56 55 59 59 57 55 54 52 52 46 43 43 45 43 42 39 38 38 38
50 49 49 49 50 48 47 47 47 48 49 52 56 57 58 59 59 57 56 55 53 52 48 45 45 44 44 44 42 38 34 32
49 49 48 48 49 50 50 52 53 52 52 54 57 58 59 59 58 57 56 57 55 51 49 48 48 48 45 45 43 40 39 36
47 48 48 48 49 51 53 54 52 52 53 54 55 58 59 58 58 58 57 57 55 52 50 49 49 47 46 45 44 43 40 37
47 47 48 48 49 51 53 55 54 52 52 53 55 57 57 58 57 57 56 54 53 52 51 49 49 48 48 47 46 45 39 39
47 48 50 49 50 52 54 54 56 55 53 55 56 56 56 58 57 55 54 54 52 50 50 50 48 48 46 46 45 41 40 38

GFSFLT2_sfc_dewp_051.txt.gz
Dewpoint
65 65 63 64 66 64 64 67 67 67 67 67 67 67 66 66 65 64 63 62 62 61 61 62 63 62 61 60 60 58 53 53
65 63 61 62 62 61 63 66 66 67 67 67 67 66 66 65 64 63 62 62 62 61 61 62 62 62 60 60 60 57 53 54
65 61 60 59 60 61 61 67 67 67 67 67 65 64 63 62 63 63 62 62 61 60 59 60 62 61 61 60 56 53 54 55
63 61 60 58 59 58 57 59 64 65 65 64 64 62 61 61 62 62 61 61 60 60 58 56 51 51 57 57 54 55 55 55
61 61 61 59 57 55 57 60 62 60 60 61 62 62 61 60 59 59 59 58 54 51 51 48 44 48 51 53 55 56 56 57
60 60 58 58 57 57 59 60 60 59 60 60 60 59 58 58 58 58 56 54 51 50 49 47 44 42 46 50 53 54 55 57
60 59 58 56 55 56 58 60 58 58 58 58 57 56 55 56 55 54 53 51 50 51 47 45 41 39 39 45 48 52 53 54
60 60 59 57 55 56 61 59 59 59 57 55 54 54 54 54 53 52 51 49 51 50 47 43 39 37 37 40 45 45 46 48
59 60 60 58 58 60 59 59 58 58 56 55 55 54 54 53 52 53 52 51 51 50 47 46 40 36 36 38 40 42 42 43
56 59 58 58 58 57 58 57 58 57 57 56 55 55 56 55 54 54 54 53 52 50 48 46 42 37 35 36 38 38 41 43
55 57 57 57 56 55 54 52 53 53 56 56 56 56 58 56 57 56 55 54 53 51 48 45 42 39 36 36 37 36 35 41
55 55 56 56 54 54 54 54 49 48 49 55 57 57 59 58 57 56 55 53 52 50 47 45 43 41 36 36 37 37 36 38
55 55 55 55 54 53 53 53 52 48 48 52 53 55 58 58 58 57 54 52 51 50 47 44 42 41 40 40 41 40 38 37
53 53 53 53 54 53 53 53 52 48 48 50 53 55 55 57 57 57 55 53 51 50 46 42 41 42 39 41 39 40 40 38
51 52 51 50 50 50 49 51 50 48 48 49 51 55 55 57 58 57 55 54 52 51 48 44 41 43 43 41 39 38 39 39
51 51 50 49 49 47 47 47 46 47 48 48 49 53 56 55 57 57 56 55 53 53 52 48 47 42 43 43 41 40 36 34
51 50 50 49 49 48 47 47 48 48 49 49 51 54 56 57 57 57 56 55 54 53 51 50 50 48 45 44 43 40 42 39
50 49 49 49 49 49 49 48 49 50 51 51 52 53 56 57 57 57 56 56 55 54 53 51 49 48 46 46 46 44 40 39
49 49 49 49 49 49 49 49 51 52 52 52 52 53 55 56 57 56 56 56 57 56 53 51 50 49 47 46 46 45 43 41
47 48 48 48 48 48 49 50 52 54 53 53 52 53 54 56 57 57 57 57 57 55 54 53 51 48 48 47 47 46 42 39